Regional Weather Roundup
Issued by NWS

Home | Current Version | Previous Version | Text Only | Print | Product List | Glossary On
Versions: 1 2 3 4 5 6 7 8 9 10 11 12 13 14 15 16 17 18 19 20 21 22 23 24 25 26 27 28 29 30 31 32 33 34 35 36 37 38 39 40 41 42 43 44 45 46 47 48 49 50
000
ASUS43 KMPX 031110
RWRMN
WEATHER ROUNDUP FOR MINNESOTA
NATIONAL WEATHER SERVICE TWIN CITIES/CHANHASSEN MN
500 AM CST TUE MAR 03 2015


NOTE: "FAIR" INDICATES FEW OR NO CLOUDS BELOW 12,000 FEET WITH NO
SIGNIFICANT WEATHER AND/OR OBSTRUCTIONS TO VISIBILITY. N/A MEANS
CURRENT SKY AND/OR WEATHER CONDITIONS ARE NOT AVAILABLE.

MNZ060>063-068>070-031200-
   Twin Cities Metro

CITY           SKY/WX    TMP DP  RH WIND       PRES   REMARKS
TWIN CITIES    CLOUDY    22  12  65 SE8       29.80F WCI  12
ST PAUL        CLOUDY    23  13  65 SE10      29.82F WCI  12
CRYSTAL        CLOUDY    24  13  62 SE8       29.78F WCI  15
BLAINE         CLOUDY    25  16  68 SE8       29.79F WCI  16
LAKEVILLE      CLOUDY    21  16  79 SE5       29.80F WCI  15
EDEN PRAIRIE   CLOUDY    22  14  71 SE8       29.78F WCI  12
SOUTH ST PAUL  CLOUDY    23  14  68 SE3       29.81F
LAKE ELMO      CLOUDY    23  14  68 SE5       29.82S WCI  17
$$
MNZ001>005-007-008-013>017-022>024-027-028-031200-
   Northwest Minnesota

CITY           SKY/WX    TMP DP  RH WIND       PRES   REMARKS
BEMIDJI        FLURRIES  24  19  83 SW8       29.66F WCI  15
HALLOCK        CLOUDY    18  12  79 NW25      29.74R WCI  -1
ROSEAU         CLOUDY    21  16  79 W8        29.66S WCI  12
WARROAD        CLOUDY    21  18  86 W9        29.65S WCI  11
THIEF RVR FALL CLOUDY    19  16  86 NW22      29.70S WCI   3
CROOKSTON      CLOUDY    19  16  86 N16       29.74F WCI   5
FOSSTON        LGT SNOW  23  19  86 SW12      29.68F WCI  12
DETROIT LAKES  LGT SNOW  27  25  93 SW6       29.68F WCI  20
MOORHEAD       LGT RAIN  25  21  86 NW20G26   29.72F WCI  11
PARK RAPIDS    LGT SNOW  23  20  88 S8        29.67F FOG     WCI  14
MAHNOMEN       CLOUDY    24  21  86 SW10      29.67F WCI  14
$$
MNZ006-009>011-018-025>026-031200-
   North Central Minnesota

CITY           SKY/WX    TMP DP  RH WIND       PRES   REMARKS
BAUDETTE       CLOUDY    25  19  78 W12       29.62F WCI  14
FLAG ISLAND    CLOUDY    25  18  74 W12       29.60F WCI  14
INTL FALLS     CLOUDY    24  15  68 SW8       29.65F WCI  15
WASKISH        CLOUDY    27  19  74 CALM      29.65F
BIG FORK       CLOUDY    23  16  74 S9        29.68F WCI  13
LONGVILLE      LGT SNOW  21  18  86 S7        29.70F WCI  13
GRAND RAPIDS   CLOUDY    19  18  93 S14       29.69F WCI   6
CRANE LAKE     CLOUDY    21  10  63 S7        29.71F WCI  13
ORR            CLOUDY    21  10  63 S8        29.67F WCI  12
COOK           CLOUDY    21  12  68 S12       29.70F WCI   9
WALKER         LGT SNOW  22  19  88 S5        29.68F WCI  15
$$
MNZ012-019>021-037-031200-
   Northeast Minnesota

CITY           SKY/WX    TMP DP  RH WIND       PRES   REMARKS
DULUTH         LGT SNOW  20  15  81 S9        29.75F VSB 3/4 WCI   9
ELY            LGT SNOW  19  12  73 SW10      29.72R WCI   8
HIBBING        LGT SNOW  19  14  81 S7        29.72F WCI  10
EVELETH        LGT SNOW  21  18  86 S8        29.75S WCI  12
DULUTH HARBOR  LGT SNOW  21  19  93 CALM      29.82F
TWO HARBORS    LGT SNOW  21  18  86 SW7       29.77F WCI  13
SILVER BAY     MIX PCPN  21  18  86 SW6       29.76F WCI  14
GRAND MARAIS     N/A     27  16  63 SW16      29.81F WCI  15
G MARAIS ARPRT CLOUDY    18   9  68 S8G17     29.73F WCI   7
$$
MNZ029>031-032-039>041-046>048-054>057-064-031200-
   West Central Minnesota

CITY           SKY/WX    TMP DP  RH WIND       PRES   REMARKS
FERGUS FALLS   LGT SNOW  25  21  86 SW6       29.73F WCI  18
WHEATON        LGT SNOW  21  21 100 SE12      29.71F WCI   9
MORRIS         SNOW      23  21  93 S14       29.69F VSB 1/2 WCI  11
ALEXANDRIA     SNOW      21  19  92 S10       29.69F VSB 1/2 WCI  10
ELBOW LAKE     LGT SNOW  22  21  96 S16       29.68F WCI   8
WADENA         LGT SNOW  21  19  93 S5        29.69F WCI  15
GLENWOOD       LGT SNOW  21  19  93 S12       29.71F WCI   9
APPLETON       LGT SNOW  25  21  86 SE8       29.70F WCI  16
BENSON         LGT SNOW  23  19  86 S8        29.71F WCI  14
ORTONVILLE     LGT SNOW  23  21  93 SE8       29.69F VSB 1   WCI  14
MADISON        LGT SNOW  25  21  86 SE6       29.70F WCI  18
WILLMAR        FAIR      23  18  80 SE8       29.74F WCI  14
$$
MNZ033>034-036-042>043-049>051-058-059-031200-
   Central Minnesota

CITY           SKY/WX    TMP DP  RH WIND       PRES   REMARKS
ST CLOUD       CLOUDY    21  14  74 SE8       29.76F WCI  11
SAUK CENTRE    LGT SNOW  20  18  92 SE9       29.72F WCI   9
PAYNESVILLE    CLOUDY    19  15  82 E8        29.74F WCI   9
AITKIN         LGT SNOW  21  18  86 S10       29.72F WCI  10
PINE RIVER     LGT SNOW  19  18  93 S9        29.74F WCI   9
BRAINERD       LGT SNOW  20  17  88 S13       29.73F VSB 3/4 WCI   7
STAPLES        LGT SNOW  19  19 100 S12       29.70F WCI   7
LITTLE FALLS   LGT SNOW  21  18  86 SE6       29.75F WCI  14
LITCHFIELD     MIX PCPN  23  18  80 SE6       29.75F WCI  16
BUFFALO        CLOUDY    23  14  70 SE6       29.78F WCI  15
MAPLE LAKE     CLOUDY    23  17  75 SE6       29.77F WCI  16
$$
MNZ037-044-045-052-053-031200-
   East Central Minnesota

CITY           SKY/WX    TMP DP  RH WIND       PRES   REMARKS
PRINCETON      CLOUDY    23  14  68 CALM      29.77F
MORA           FLURRIES  19  12  73 SE5       29.80F WCI  13
CAMBRIDGE      CLOUDY    23  12  63 SE5       29.79F WCI  17
RUSH CITY      CLOUDY    20  13  72 SE6       29.81F WCI  13
MOOSE LAKE     LGT SNOW  21  18  86 CALM      29.77S
HINCKLEY       FLURRIES  21  16  79 S7        29.80F WCI  13
CLOQUET        LGT SNOW  19  18  93 S7        29.77S WCI  10
MCGREGOR       CLOUDY    21  19  93 S7        29.75F VSB 1   WCI  13
$$
MNZ071>073-080-081-089-090-097-098-031200-
   Southwest Minnesota

CITY           SKY/WX    TMP DP  RH WIND       PRES   REMARKS
MONTEVIDEO     CLOUDY    23  21  93 S8        29.72F WCI  14
GRANITE FALLS  CLOUDY    23  19  86 SE8       29.72F WCI  14
CANBY          CLOUDY    26  21  80 E3        29.69F
MARSHALL       CLOUDY    25  18  74 SE8       29.70F WCI  16
REDWOOD FALLS  CLOUDY    23  18  81 SE10      29.72F WCI  12
OLIVIA         CLOUDY    21  19  93 SE8       29.72F WCI  12
PIPESTONE      CLOUDY    23  19  86 S6        29.65F WCI  16
WINDOM         CLOUDY    23  19  86 SE8       29.69F WCI  14
WORTHINGTON    CLOUDY    21  18  86 SE7       29.69F WCI  13
JACKSON        CLOUDY    25  21  86 SE9       29.69F WCI  15
TRACY          CLOUDY    25  21  85 S6        29.69F WCI  18
SLAYTON        CLOUDY    22  19  89 CALM      29.68F
$$
MNZ065>067-074>077-082>085-091>093-031200-
   South Central Minnesota

CITY           SKY/WX    TMP DP  RH WIND       PRES   REMARKS
MANKATO        CLOUDY    23  16  74 SE13      29.75F WCI  11
NEW ULM        CLOUDY    21  18  86 SE9       29.73F WCI  11
ST JAMES       CLOUDY    25  19  80 SE7       29.73F WCI  17
FAIRMONT       CLOUDY    25  18  74 SE12      29.70F WCI  14
GLENCOE        CLOUDY    24  19  82 SE7       29.76F WCI  15
FARIBAULT      CLOUDY    25  18  74 SE10      29.78F WCI  15
OWATONNA       CLOUDY    23  18  80 SE14G20   29.76F WCI  11
WASECA         CLOUDY    23  18  80 SE9       29.79F WCI  13
ALBERT LEA     CLOUDY    23  19  86 SE8       29.75F WCI  14
$$
MNZ078>079-086>088-094>096-031200-
   Southeast Minnesota

CITY           SKY/WX    TMP DP  RH WIND       PRES   REMARKS
ROCHESTER      CLOUDY    22  16  78 SE15      29.78F WCI   9
RED WING       CLOUDY    25  14  63 SE8       29.82F WCI  16
STANTON        CLOUDY    25  16  70 SE3       29.79F
DODGE CENTER   CLOUDY    21  19  93 S14       29.77F WCI   8
WINONA         CLOUDY    27  19  74 SE8       29.85F WCI  18
AUSTIN         CLOUDY    21  19  93 SE8       29.77F FOG     WCI  12
PRESTON        CLOUDY    21  18  89 SE8       29.81F FOG     WCI  11
$$
ABBREVIATIONS USED IN REMARKS
   TC - TEMPERATURES IN CELSIUS
  WCI - WIND CHILL INDEX
   HX - HEAT INDEX
  VSB - VISIBILITY
$$



USA.gov is the U.S. government's official web portal to all federal, state and local government web resources and services.